ILAIGU24 Weather Reports


Display with metric or nautical units.
time (UTC)temp
F
wind
direction
speed
MPH
gust
MPH
rain 1hr
in
rain 24hr
in
rain mn
in
humidity
%
barometer
mb
20260508004515 57 247 2.0 3.0 0.00 0.00 0.00 89 1014.5
20260508003011 57 247 0.0 3.0 0.00 0.00 0.00 89 1014.7
20260508001514 57 254 2.0 4.0 0.00 0.00 0.00 89 1014.9
20260508000016 57 251 1.0 3.0 0.00 0.00 0.00 89 1015.1
20260507234523 57 251 2.0 3.0 0.00 0.00 0.00 89 1015.1
20260507233024 58 251 2.0 4.0 0.00 0.00 0.00 89 1015.3
20260507231520 58 248 2.0 4.0 0.00 0.00 0.00 89 1015.5
20260507230027 58 255 2.0 4.0 0.00 0.00 0.00 88 1015.6
20260507224513 58 250 2.0 3.0 0.00 0.00 0.00 88 1015.7
20260507223042 59 250 2.0 3.0 0.00 0.00 0.00 88 1015.7
20260507221506 59 250 1.0 3.0 0.00 0.00 0.00 88 1015.6
20260507220008 59 250 2.0 4.0 0.00 0.00 0.00 88 1015.6
20260507214513 59 250 2.0 3.0 0.00 0.00 0.00 88 1015.5
20260507213022 59 250 2.0 3.0 0.00 0.00 0.00 88 1015.4
20260507211518 58 250 2.0 3.0 0.00 0.00 0.00 88 1015.3
20260507210017 58 250 2.0 3.0 0.00 0.00 0.00 88 1015.2
20260507204511 58 250 2.0 4.0 0.00 0.00 0.00 87 1015.2
20260507203028 59 250 2.0 4.0 0.00 0.00 0.00 87 1015.3
20260507201519 59 250 2.0 4.0 0.00 0.00 0.00 87 1015.3
20260507200046 59 250 2.0 4.0 0.00 0.00 0.00 86 1015.2
20260507194520 59 244 2.0 4.0 0.00 0.00 0.00 86 1015.0
20260507193037 59 254 2.0 4.0 0.00 0.00 0.00 85 1014.9
20260507191518 59 247 2.0 4.0 0.00 0.00 0.00 85 1014.7
20260507190033 60 247 2.0 4.0 0.00 0.00 0.00 84 1014.5
20260507184525 60 249 2.0 4.0 0.00 0.00 0.00 84 1014.6
20260507183035 61 246 0.0 0.0 0.00 0.00 0.00 82 1014.6
20260507181520 62 246 0.0 1.0 0.00 0.00 0.00 81 1014.6
20260507180019 62 246 0.0 0.0 0.00 0.00 0.00 79 1014.5
20260507174524 63 246 0.0 3.0 0.00 0.00 0.00 78 1014.3
20260507173028 64 246 0.0 2.0 0.00 0.00 0.00 75 1014.3
20260507171525 65 239 0.0 0.0 0.00 0.00 0.00 73 1014.4
20260507170027 65 124 0.0 0.0 0.00 0.00 0.00 72 1014.4
20260507164518 65 124 0.0 0.0 0.00 0.00 0.00 72 1014.4
20260507163024 65 71 0.0 1.0 0.00 0.00 0.00 71 1014.4
20260507161519 65 136 0.0 0.0 0.00 0.00 0.00 71 1014.3
20260507160012 65 81 0.0 0.0 0.00 0.00 0.00 73 1014.3
20260507154516 65 75 0.0 0.0 0.00 0.00 0.00 73 1014.3
20260507153004 65 94 0.0 1.0 0.00 0.00 0.00 73 1014.2
20260507151505 65 105 0.0 2.0 0.00 0.00 0.00 74 1014.3
20260507150007 65 52 1.0 4.0 0.00 0.00 0.00 75 1014.4
20260507144504 65 119 0.0 6.0 0.00 0.00 0.00 75 1014.4
20260507143018 66 113 0.0 1.0 0.00 0.00 0.00 74 1014.4
20260507141505 66 117 1.0 6.0 0.00 0.00 0.00 73 1014.5
20260507140008 66 166 2.0 6.0 0.00 0.00 0.00 73 1014.5
20260507134510 67 118 2.0 6.0 0.00 0.00 0.00 73 1014.6
20260507133010 67 125 1.0 3.0 0.00 0.00 0.00 74 1014.9
20260507131513 67 102 0.0 7.0 0.00 0.00 0.00 73 1015.1
20260507130005 68 124 2.0 6.0 0.00 0.00 0.00 70 1014.9
20260507124507 68 148 3.0 6.0 0.00 0.00 0.00 71 1014.9
20260507123013 68 125 3.0 7.0 0.00 0.00 0.00 71 1014.7
20260507121516 67 97 3.0 7.0 0.00 0.00 0.00 70 1014.6
20260507120010 67 122 0.0 5.0 0.00 0.00 0.00 70 1014.5
20260507114506 68 113 1.0 6.0 0.00 0.00 0.00 70 1014.6
20260507113019 68 126 1.0 6.0 0.00 0.00 0.00 70 1014.8
20260507111533 68 109 2.0 6.0 0.00 0.00 0.00 71 1014.9
20260507110025 67 107 2.0 7.0 0.00 0.00 0.00 72 1014.9
20260507104518 68 126 2.0 6.0 0.00 0.00 0.00 70 1014.9
20260507103013 68 121 2.0 6.0 0.00 0.00 0.00 70 1014.9
20260507101512 68 121 2.0 6.0 0.00 0.00 0.00 71 1015.0
20260507100010 68 120 3.0 6.0 0.00 0.00 0.00 70 1015.0
20260507094505 68 80 2.0 7.0 0.00 0.00 0.00 70 1014.9
20260507093006 68 98 2.0 7.0 0.00 0.00 0.00 68 1014.6
20260507091510 68 113 3.0 4.0 0.00 0.00 0.00 69 1014.6
20260507090013 67 115 2.0 4.0 0.00 0.00 0.00 69 1014.4
20260507084514 67 117 2.0 4.0 0.00 0.00 0.00 70 1014.4
20260507083013 67 118 2.0 3.0 0.00 0.00 0.00 69 1014.1
20260507081508 66 94 2.0 6.0 0.00 0.00 0.00 70 1014.1
20260507080013 65 124 0.0 4.0 0.00 0.00 0.00 71 1014.1
20260507074516 65 123 1.0 6.0 0.00 0.00 0.00 72 1014.1
20260507073031 65 128 2.0 4.0 0.00 0.00 0.00 73 1013.9
20260507071521 64 119 2.0 4.0 0.00 0.00 0.00 74 1013.8
20260507070012 64 129 0.0 4.0 0.00 0.00 0.00 75 1013.8
20260507064522 64 115 2.0 6.0 0.00 0.00 0.00 75 1013.7
20260507063024 64 121 3.0 7.0 0.00 0.00 0.00 76 1013.4
20260507061526 63 120 2.0 4.0 0.00 0.00 0.00 76 1013.3
20260507060028 62 100 0.0 3.0 0.00 0.00 0.00 79 1013.3
20260507054526 60 246 0.0 3.0 0.00 0.00 0.00 82 1013.2
20260507053020 59 245 0.0 3.0 0.00 0.00 0.00 85 1013.0
20260507051520 58 245 1.0 4.0 0.00 0.00 0.00 86 1012.7
20260507050033 57 238 1.0 6.0 0.00 0.00 0.00 89 1012.6
20260507044535 56 257 1.0 3.0 0.00 0.00 0.00 89 1012.6
20260507043028 56 257 1.0 3.0 0.00 0.02 0.00 89 1012.4
20260507041528 56 257 2.0 4.0 0.00 0.07 0.00 89 1012.4
20260507040005 56 257 1.0 4.0 0.00 0.09 0.00 89 1012.4
20260507034504 56 257 2.0 4.0 0.00 0.09 0.00 89 1012.2
20260507033004 56 257 2.0 4.0 0.00 0.09 0.00 89 1012.1
20260507031503 56 242 2.0 5.0 0.00 0.09 0.00 89 1012.1
20260507030004 55 242 2.0 4.0 0.00 0.09 0.00 89 1012.1
20260507024504 55 242 2.0 4.0 0.00 0.10 0.00 89 1012.0
20260507023004 55 242 2.0 4.0 0.00 0.10 0.00 89 1012.0
20260507021503 55 242 2.0 4.0 0.00 0.10 0.00 89 1012.0
20260507020005 55 242 2.0 4.0 0.00 0.10 0.00 89 1011.9
20260507014506 55 242 2.0 4.0 0.00 0.10 0.00 88 1011.8
20260507013004 56 242 2.0 4.0 0.00 0.10 0.00 88 1011.7
20260507011516 56 242 2.0 4.0 0.00 0.10 0.00 88 1011.7
20260507010004 56 242 2.0 4.0 0.00 0.10 0.00 89 1011.7